STARLINK-1206, 45204

Orbit data source: Space-Track

STARLINK-1206, 45204 is a payload satellite owned by SpaceX/Seattle (US) in LEO that was launched on Mon, 17 Feb 2020 UTC via an FALCON 9 launch vehicle from the Air Force Eastern Test Range (AFETR). Payload-class satellites include a variety of spacecraft equipped with specific instruments for various scientific and technological missions. These include communications satellites like Starlink; space stations such as the ISS; scientific satellites like the Hubble; Earth observation satellites from companies like Planet Labs, Umbra, and HawkEye 360; GPS; miniature CubeSats for education and research; and military/defense satellites.

Not visible in the next 10 days
Identifier
45204, 2020-012AC
Orbit
LEO
Country
Flag of USUS
Related business
Manufacturer
SpaceX/Seattle
Mission
Partially operational Commercial Communications
Bus & Motor
STARLINK, Unknown motor
Mass
260 kg wet, ~248 kg dry
Launch date (UTC)
2020-02-17 (6 years ago)
Launch vehicle
FALCON 9
Launch site
Air Force Eastern Test Range (AFETR)
Object type
Payload
Rocket body
Debris
Shape & HBR
Box + 1 Pan, 4.4 m
Radar Cross Section
13.562 m², Large (>1 m²)

Expand to show TLE details & history
Last TLE update: 15 hours ago

TLE from 15 hours ago
0 STARLINK-1206
1 45204U 20012AC  25260.58753637  .01812069  24714-2  22057-2 0  9994
2 45204  53.0387  30.6078 0005675 260.6321  99.4071 16.08030378309783
Epoch: 2025-09-17T14:06Z
TLE epoch observation values (Epoch: 2025-09-17T14:06:03.142Z)
Latitude
0.00004°
Longitude
-177.6666°
Altitude
253.785 km
Speed
7.756 km/s
True Right ascension
02h 02m 25s
True Declination
0° 00' 00"
Sunlit
Object was in full shadow at epoch
Visualization orbit readout
Latitude
Unknown
Longitude
Unknown
Altitude
Unknown
Speed
Unknown
Apparent Right ascension
Unknown
Apparent Declination
Unknown
Sunlit
N/A
Visualization observer readout
Local Sidereal Time
22:01:02
Azimuth
Unknown
Elevation
Unknown
Doppler factor
Unknown
Orbital elements
Apogee altitude
256.3 km
Perigee altitude
248.774 km
Semi-major axis
6,630.674 km
Eccentricity
0.00057
Inclination
53.0387°
RAAN
30.6078°
Arg. of periapsis
260.6321°
True anomaly
99.47125°
Mean anomaly
99.4071°
Eccentric anomaly
99.43918°
Mean motion
4.01982 °/min
Orbital period
89.56 mins
BSTAR
0.0022057
Loading maneuver chart data...
Computing Atmospheric mass density...

Documentation

Showing up to 5 results
|